Simultaneous Nadir Overpasses (SNOs) Predictions

Prediction of SNOs between METOP-A and NOAA-19 Satellite Orbit:

Table of predicted SNOs for the next 14.0 days since TLE Epoch: 8/16/2013
Index Date (METOP-A) Time (METOP-A) Lat,Lon (METOP-A) SZA (METOP-A ) Date (NOAA-19) Time (NOAA-19) Lat,Lon (NOAA-19) SZA (NOAA-19 ) Distance(km) Time Diff (sec)
1 08/17/2013 21:51:53 73.98,-153.57 60.87 08/17/2013 21:50:43 73.99,-155.52 60.97 60.03 70
2 08/17/2013 22:42:43 -73.57, 12.78 119.50 08/17/2013 22:41:35 -73.55, 12.81 119.51 2.67 68
3 08/17/2013 23:33:23 73.56,-179.90 60.51 08/17/2013 23:32:38 73.53,-179.92 60.49 3.53 45
4 08/18/2013 00:24:05 -73.55, -12.60 119.49 08/18/2013 00:23:39 -73.53, -12.66 119.51 3.13 26
5 08/18/2013 01:14:46 73.49, 154.60 60.47 08/18/2013 01:14:42 73.51, 154.62 60.49 1.97 4
6 08/18/2013 02:05:28 -73.48, -38.10 119.53 08/18/2013 02:05:43 -73.51, -38.13 119.51 3.05 15
7 08/18/2013 02:56:08 73.47, 129.22 60.48 08/18/2013 02:56:46 73.49, 129.15 60.49 2.91 38
8 08/18/2013 03:46:50 -73.46, -63.48 119.53 08/18/2013 03:47:46 -73.44, -63.48 119.56 2.61 56
9 08/18/2013 04:37:34 73.25, 103.39 60.30 08/18/2013 04:38:46 73.27, 104.13 60.27 24.10 72
10 08/27/2013 23:26:16 74.04,-177.01 64.30 08/27/2013 23:25:07 74.03,-179.15 64.38 65.56 69
11 08/28/2013 00:17:07 -73.58, -10.78 116.11 08/28/2013 00:15:57 -73.60, -10.85 116.07 3.30 70
12 08/28/2013 01:07:47 73.57, 156.54 63.90 08/28/2013 01:07:02 73.57, 156.46 63.91 2.48 45
13 08/28/2013 01:58:29 -73.56, -36.17 116.10 08/28/2013 01:58:00 -73.53, -36.20 116.12 3.11 29
14 08/28/2013 02:49:10 73.50, 131.04 63.86 08/28/2013 02:49:05 73.50, 131.11 63.86 2.26 5
15 08/28/2013 03:39:52 -73.49, -61.67 116.14 08/28/2013 03:40:04 -73.51, -61.67 116.12 2.63 12
16 08/28/2013 04:30:32 73.48, 105.65 63.87 08/28/2013 04:31:09 73.48, 105.64 63.86 0.63 37
17 08/28/2013 05:21:14 -73.47, -87.05 116.14 08/28/2013 05:22:07 -73.45, -87.03 116.17 2.95 53
18 08/28/2013 06:11:57 73.31, 79.93 63.74 08/28/2013 06:13:10 73.31, 80.51 63.70 18.69 73




NCC Satellite Simultaneous Nadir Overpasses (SNOs) Prediction Service
